| time (UTC) | temp F | wind direction | speed MPH | gust MPH | rain 1hr in | rain 24hr in | rain mn in | humidity % | barometer mb |
| 20260509013900 | 43 | 315 | 0.0 | 0.0 | 0.00 | 0.00 | 0.00 | 55 | 1009.2 |
| 20260509013403 | 43 | 315 | 0.0 | 0.0 | 0.00 | 0.00 | 0.00 | 54 | 1009.1 |
| 20260509012859 | 43 | 315 | 0.0 | 0.0 | 0.00 | 0.00 | 0.00 | 55 | 1009.0 |
| 20260509012407 | 44 | 315 | 0.0 | 0.0 | 0.00 | 0.00 | 0.00 | 53 | 1008.9 |
| 20260509011905 | 44 | 328 | 0.0 | 0.0 | 0.00 | 0.00 | 0.00 | 53 | 1009.0 |
| 20260509011402 | 44 | 257 | 0.0 | 0.0 | 0.00 | 0.00 | 0.00 | 51 | 1009.0 |
| 20260509011136 | 45 | 257 | 0.0 | 0.0 | 0.00 | 0.00 | 0.00 | 51 | 1008.8 |
| 20260509010400 | 45 | 263 | 0.0 | 0.0 | 0.00 | 0.00 | 0.00 | 49 | 1009.0 |
| 20260509005900 | 46 | 263 | 0.0 | 0.0 | 0.00 | 0.00 | 0.00 | 48 | 1009.0 |
| 20260509005440 | 47 | 263 | 0.0 | 0.0 | 0.00 | 0.00 | 0.00 | 46 | 1009.1 |
| 20260509005408 | 46 | 263 | 0.0 | 0.0 | 0.00 | 0.00 | 0.00 | 47 | 1008.9 |
| 20260509004631 | 47 | 263 | 0.0 | 0.0 | 0.00 | 0.00 | 0.00 | 45 | 1009.0 |
| 20260509003859 | 47 | 331 | 0.0 | 1.0 | 0.00 | 0.00 | 0.00 | 45 | 1009.0 |
| 20260509003634 | 48 | 331 | 0.0 | 1.0 | 0.00 | 0.00 | 0.00 | 45 | 1009.0 |
| 20260509002907 | 48 | 169 | 0.0 | 1.0 | 0.00 | 0.00 | 0.00 | 45 | 1009.1 |
| 20260509002402 | 48 | 158 | 0.0 | 2.0 | 0.00 | 0.00 | 0.00 | 44 | 1009.0 |
| 20260509002128 | 49 | 257 | 0.0 | 3.0 | 0.00 | 0.00 | 0.00 | 44 | 1008.7 |
| 20260509001400 | 49 | 259 | 0.0 | 3.0 | 0.00 | 0.00 | 0.00 | 43 | 1008.9 |
| 20260509000902 | 50 | 236 | 0.0 | 3.0 | 0.00 | 0.00 | 0.00 | 42 | 1008.9 |
| 20260509000403 | 50 | 247 | 0.0 | 3.0 | 0.00 | 0.00 | 0.00 | 42 | 1008.8 |
| 20260508235902 | 50 | 223 | 1.0 | 3.0 | 0.00 | 0.00 | 0.00 | 41 | 1008.9 |
| 20260508235402 | 51 | 224 | 0.0 | 3.0 | 0.00 | 0.00 | 0.00 | 42 | 1008.9 |
| 20260508235132 | 51 | 5 | 0.0 | 3.0 | 0.00 | 0.00 | 0.00 | 41 | 1008.8 |
| 20260508234413 | 51 | 175 | 0.0 | 2.0 | 0.00 | 0.00 | 0.00 | 40 | 1008.8 |
| 20260508233928 | 51 | 250 | 0.0 | 3.0 | 0.00 | 0.00 | 0.00 | 41 | 1008.9 |
| 20260508233402 | 51 | 248 | 1.0 | 5.0 | 0.00 | 0.00 | 0.00 | 41 | 1009.1 |
| 20260508232903 | 51 | 161 | 0.0 | 5.0 | 0.00 | 0.00 | 0.00 | 41 | 1009.0 |
| 20260508232412 | 51 | 221 | 1.0 | 4.0 | 0.00 | 0.00 | 0.00 | 41 | 1008.9 |
| 20260508231937 | 52 | 322 | 1.0 | 4.0 | 0.00 | 0.00 | 0.00 | 40 | 1008.8 |
| 20260508231416 | 52 | 168 | 1.0 | 4.0 | 0.00 | 0.00 | 0.00 | 41 | 1008.9 |
| 20260508231139 | 53 | 236 | 4.0 | 4.0 | 0.00 | 0.00 | 0.00 | 41 | 1008.9 |
| 20260508230724 | 51 | 236 | 2.0 | 5.0 | 0.00 | 0.00 | 0.00 | 41 | 1008.8 |
| 20260508230455 | 52 | 211 | 4.0 | 5.0 | 0.00 | 0.00 | 0.00 | 40 | 1008.9 |
| 20260508225711 | 52 | 265 | 2.0 | 6.0 | 0.00 | 0.00 | 0.00 | 41 | 1008.8 |
| 20260508225446 | 52 | 265 | 2.0 | 6.0 | 0.00 | 0.00 | 0.00 | 41 | 1008.8 |
| 20260508224907 | 52 | 136 | 2.0 | 6.0 | 0.00 | 0.00 | 0.00 | 41 | 1008.7 |
| 20260508224407 | 52 | 255 | 0.0 | 6.0 | 0.00 | 0.00 | 0.00 | 41 | 1008.8 |
| 20260508223908 | 52 | 323 | 0.0 | 6.0 | 0.00 | 0.00 | 0.00 | 41 | 1008.9 |
| 20260508223403 | 53 | 187 | 2.0 | 4.0 | 0.00 | 0.00 | 0.00 | 39 | 1009.0 |
| 20260508222904 | 52 | 169 | 3.0 | 4.0 | 0.00 | 0.00 | 0.00 | 40 | 1008.9 |
| 20260508222405 | 52 | 166 | 2.0 | 3.0 | 0.00 | 0.00 | 0.00 | 41 | 1008.9 |
| 20260508221903 | 53 | 281 | 0.0 | 4.0 | 0.00 | 0.00 | 0.00 | 40 | 1008.9 |
| 20260508221432 | 53 | 132 | 2.0 | 4.0 | 0.00 | 0.00 | 0.00 | 40 | 1008.9 |
| 20260508220909 | 55 | 224 | 1.0 | 2.0 | 0.00 | 0.00 | 0.00 | 38 | 1008.9 |
| 20260508220418 | 53 | 252 | 2.0 | 2.0 | 0.00 | 0.00 | 0.00 | 39 | 1008.9 |
| 20260508215911 | 53 | 169 | 0.0 | 2.0 | 0.00 | 0.00 | 0.00 | 39 | 1009.0 |
| 20260508215343 | 54 | 256 | 0.0 | 0.0 | 0.00 | 0.00 | 0.00 | 47 | 1008.9 |